Temperature
3 3 2 2 3 2 2 2 2 2 2 2 2 3 2 2 2 2 2 2 2 2 2 2 2 2 2 2 2 2 2 2 2 3 2 2 2 3
2 2 2 2 2 2 2 1 1 1 1 1 2 2 2 2 2 2 2 2 2 2 2 2 2 2 1 1 2 2 2 2 2 2 2 2 2 2
2 1 1 1 1 1 1 1 1 1 0 1 1 1 1 1 1 1 1 1 1 1 1 1 1 1 1 1 1 1 1 1 1 1 2 2 2 2
1 1 1 1 1 1 1 1 0 0 0 0 0 1 1 1 0 0 0 0 0 1 1 1 1 1 1 1 1 1 1 1 1 1 1 1 1 1
1 1 0 0 0 0 0 -0 -0 -0 -0 -1 -0 -0 -0 -0 -0 -0 -0 -0 -0 -0 0 0 0 0 0 0 0 0 0 0 1 1 1 1 1 1
0 0 0 -0 -0 -0 -0 -1 -1 -1 -1 -1 -1 -1 -1 -1 -1 -1 -1 -1 -1 -0 -0 -0 -0 -0 -0 -0 -0 -0 0 0 0 0 0 1 1 1
-0 -0 -0 -0 -0 -1 -1 -1 -1 -1 -1 -1 -1 -1 -1 -1 -1 -1 -1 -1 -1 -1 -1 -1 -1 -1 -1 -1 -1 -1 -0 -0 -0 -0 0 0 0 0
-1 -1 -1 -1 -1 -1 -1 -1 -1 -2 -1 -1 -2 -2 -2 -2 -2 -2 -2 -2 -2 -2 -2 -2 -2 -2 -1 -1 -1 -1 -1 -1 -0 -0 -0 -0 -0 -0
-1 -1 -1 -1 -1 -1 -1 -2 -2 -2 -2 -2 -2 -2 -2 -2 -2 -2 -2 -2 -2 -2 -2 -2 -2 -2 -2 -2 -2 -1 -1 -1 -1 -1 -1 -1 -0 -0
-2 -2 -2 -2 -2 -2 -2 -2 -2 -2 -2 -2 -2 -2 -2 -2 -2 -2 -2 -3 -3 -3 -3 -3 -3 -2 -2 -2 -2 -2 -1 -1 -1 -1 -1 -1 -1 -1
-2 -2 -2 -2 -2 -2 -2 -2 -2 -2 -2 -2 -2 -2 -2 -2 -2 -3 -3 -3 -3 -3 -3 -3 -3 -3 -3 -2 -2 -2 -2 -2 -2 -2 -1 -1 -1 -1
-3 -3 -3 -2 -2 -3 -3 -3 -3 -3 -3 -2 -2 -2 -3 -3 -3 -3 -3 -3 -4 -4 -4 -4 -3 -4 -3 -3 -3 -3 -2 -2 -2 -2 -2 -1 -1 -1
-3 -3 -3 -3 -3 -3 -3 -3 -3 -3 -3 -3 -3 -3 -3 -3 -3 -3 -3 -4 -4 -4 -4 -4 -4 -4 -4 -4 -3 -3 -3 -3 -2 -2 -2 -2 -2 -2
-3 -3 -3 -3 -3 -3 -3 -3 -3 -3 -3 -3 -3 -3 -3 -3 -3 -3 -3 -4 -4 -4 -4 -4 -4 -4 -4 -5 -4 -4 -3 -3 -3 -3 -2 -2 -2 -2
-4 -4 -4 -4 -4 -4 -4 -4 -4 -4 -3 -4 -4 -4 -4 -3 -4 -4 -4 -4 -4 -4 -4 -4 -4 -4 -4 -5 -5 -4 -4 -4 -3 -3 -3 -3 -2 -2
-4 -4 -4 -4 -4 -4 -4 -4 -4 -4 -4 -4 -4 -4 -4 -4 -4 -4 -4 -4 -4 -4 -4 -4 -4 -4 -5 -5 -5 -5 -4 -4 -4 -4 -3 -3 -3 -3
-4 -4 -4 -4 -4 -4 -4 -4 -4 -4 -4 -4 -4 -4 -4 -4 -4 -4 -4 -5 -5 -4 -4 -4 -5 -5 -5 -5 -5 -5 -4 -4 -4 -4 -4 -3 -3 -3
-4 -4 -4 -4 -4 -4 -4 -4 -4 -4 -5 -4 -5 -5 -5 -5 -5 -5 -5 -5 -5 -5 -5 -5 -5 -5 -5 -5 -5 -5 -5 -4 -4 -4 -4 -4 -4 -3
-4 -4 -4 -4 -4 -4 -4 -5 -5 -5 -5 -5 -5 -5 -5 -5 -5 -5 -5 -5 -5 -5 -5 -5 -5 -5 -5 -5 -5 -5 -5 -5 -5 -4 -4 -4 -4 -4
-5 -5 -4 -4 -5 -5 -5 -5 -5 -5 -5 -5 -5 -5 -5 -5 -5 -5 -5 -5 -5 -5 -5 -5 -5 -5 -5 -5 -5 -5 -5 -5 -5 -5 -5 -5 -4 -4
-5 -5 -5 -5 -5 -5 -5 -5 -5 -5 -5 -5 -5 -5 -5 -5 -5 -5 -5 -5 -5 -5 -5 -5 -5 -5 -5 -5 -5 -5 -5 -5 -5 -5 -5 -5 -5 -4
-5 -5 -5 -5 -5 -5 -5 -5 -5 -5 -5 -5 -5 -5 -5 -5 -5 -5 -5 -5 -5 -5 -5 -5 -5 -5 -5 -5 -5 -5 -5 -5 -5 -5 -5 -5 -5 -5
-5 -5 -5 -5 -5 -5 -5 -5 -5 -5 -5 -5 -5 -5 -5 -5 -5 -5 -5 -5 -5 -5 -5 -5 -5 -5 -5 -6 -6 -6 -5 -5 -5 -5 -4 -4 -4 -4
Wind_Speed
5 5 4 4 4 4 5 5 5 5 6 5 3 4 5 5 6 7 8 8 9 9 8 8 9 9 10 11 11 12 13 14 14 15 15 16 17 17
4 5 5 4 4 4 4 5 5 6 6 4 5 6 6 6 7 7 7 8 8 7 7 8 9 9 10 11 11 12 13 14 14 15 15 15 16 16
5 6 6 5 5 4 4 5 5 5 7 6 5 6 6 6 6 7 7 7 6 6 8 8 8 9 10 10 11 12 13 13 13 14 15 15 15 15
6 6 6 5 6 5 5 5 6 6 7 7 6 6 7 6 6 6 6 6 6 6 8 9 9 9 10 11 11 12 12 13 13 14 14 14 15 15
6 6 6 6 7 5 6 6 5 6 6 6 6 5 5 5 5 5 6 5 6 6 7 8 8 9 10 11 11 11 12 13 13 13 13 14 14 14
6 6 7 7 7 6 6 6 6 6 6 5 5 5 5 5 4 5 5 5 5 6 6 7 8 9 9 10 10 10 11 12 12 12 12 13 13 14
6 6 7 7 7 7 6 6 6 6 5 5 5 5 5 4 4 4 5 5 6 5 5 5 6 6 6 8 8 9 11 12 12 12 12 12 13 13
6 6 6 7 7 9 9 9 8 8 7 6 6 6 6 6 5 5 5 5 5 3 5 6 6 6 5 6 7 10 11 11 11 11 12 12 12 13
7 6 5 5 7 7 8 9 9 10 10 8 8 8 7 6 6 6 6 6 7 5 5 6 6 6 6 6 8 10 10 10 11 11 12 12 12 12
7 7 7 6 6 6 7 7 8 8 8 8 8 8 7 7 7 6 6 6 6 5 5 6 6 6 6 6 7 8 9 10 11 11 11 12 12 11
6 6 7 7 7 8 7 7 7 7 8 9 10 9 9 8 6 4 4 4 5 5 4 4 5 6 6 5 5 7 8 9 10 11 11 12 11 11
5 5 7 8 8 8 6 7 7 6 6 6 6 6 6 7 7 6 5 5 4 4 2 3 4 4 4 3 4 5 6 8 9 10 10 11 11 7
5 4 4 6 7 8 7 6 7 6 5 5 4 4 3 3 4 5 5 5 5 5 3 3 4 4 4 4 5 5 5 5 6 7 8 9 9 7
5 4 4 5 6 7 6 6 7 6 4 4 3 3 3 3 3 4 5 6 6 7 6 5 4 5 5 6 5 5 5 6 6 6 6 8 8 8
4 5 5 5 5 5 6 6 5 4 3 3 3 3 3 3 3 3 3 3 4 4 5 5 5 5 5 5 5 5 6 6 5 5 5 5 5 5
4 4 5 5 4 4 4 4 3 3 3 3 3 3 2 2 2 2 3 3 3 3 3 4 4 4 5 6 5 6 6 4 5 5 5 5 4 4
3 3 3 3 3 2 2 2 2 2 3 2 2 2 2 2 2 2 2 3 3 3 3 3 3 3 4 5 5 5 5 5 5 5 5 5 4 4
3 3 3 3 3 3 2 2 2 2 2 2 2 2 2 2 2 2 2 3 3 3 3 3 3 3 3 3 4 5 5 5 5 4 4 4 5 4
3 3 3 3 3 3 3 3 3 2 2 2 2 2 2 2 2 2 2 2 2 3 3 3 3 3 3 4 2 3 4 4 4 4 3 3 4 4
3 3 3 3 3 3 3 3 2 2 2 2 2 2 2 2 3 3 3 3 3 3 3 3 3 3 3 4 4 4 5 4 4 4 4 4 4 5
3 3 3 3 3 3 2 2 2 2 2 2 2 2 2 2 2 3 3 3 3 3 3 3 3 5 4 3 3 3 3 4 4 4 4 4 4 4
3 3 3 3 3 3 2 2 2 2 2 2 2 2 2 2 3 3 3 3 3 3 3 3 3 3 2 2 3 4 4 4 3 4 5 5 3 2
3 3 3 3 3 2 2 2 2 2 2 2 2 2 2 2 2 3 3 2 2 2 2 3 3 2 2 2 3 3 4 4 3 3 3 3 3 4
Wind_Direction
235 241 247 249 248 249 253 259 268 278 275 272 276 281 294 291 296 291 292 294 290 289 296 304 308 308 310 311 312 313 314 314 312 311 310 309 308 309
235 238 244 251 251 248 249 253 256 266 271 274 281 288 291 291 292 290 292 294 284 288 298 305 306 307 307 309 311 312 313 312 311 312 311 311 310 311
238 242 245 249 250 248 249 251 251 256 266 278 284 288 285 287 295 295 294 291 288 291 298 301 305 306 308 310 314 315 314 311 310 310 311 311 310 311
243 246 247 248 247 250 249 252 255 256 265 275 281 287 288 287 291 294 301 298 293 294 294 296 300 304 306 309 311 312 314 312 309 309 309 310 311 311
244 246 250 249 249 250 252 254 259 260 261 266 276 286 291 292 296 297 300 300 298 295 292 290 293 299 302 304 307 309 312 311 310 309 310 310 311 312
249 249 250 250 250 252 253 253 258 261 260 263 273 281 291 293 291 294 300 304 301 301 295 295 293 293 294 297 302 307 311 313 313 313 312 313 313 312
250 248 247 247 249 252 254 255 255 257 258 262 269 276 281 285 284 288 290 301 299 296 301 301 300 299 300 297 299 307 311 314 315 314 314 312 311 310
253 252 249 242 242 245 250 256 256 255 255 255 261 266 271 275 280 279 286 294 296 297 303 303 302 299 304 304 307 311 312 315 316 317 316 313 311 311
254 254 252 248 246 248 250 252 254 253 252 256 256 260 264 265 268 272 274 276 282 286 298 294 298 299 305 304 304 310 313 314 316 318 318 318 316 315
254 252 250 251 247 248 250 253 257 257 259 258 258 258 259 260 257 261 270 280 283 276 278 285 296 300 304 303 303 311 314 315 315 318 320 320 318 318
255 253 249 250 247 249 251 254 258 262 260 258 260 261 262 257 256 258 258 265 282 284 281 276 290 302 298 294 299 306 310 313 315 316 317 318 317 316
260 254 245 247 252 250 252 254 256 262 270 265 259 257 253 242 238 241 245 251 275 279 263 268 284 305 299 290 300 310 310 311 314 316 317 318 318 316
259 257 253 249 253 256 257 255 257 266 266 262 262 266 262 254 251 254 254 248 257 267 259 268 276 283 280 290 296 299 305 309 313 313 313 317 320 320
258 258 258 258 261 265 263 256 258 266 261 253 253 257 264 269 271 272 272 268 265 266 260 261 264 270 281 287 290 295 301 305 307 309 312 316 316 316
258 261 264 266 270 267 258 257 255 253 248 247 250 261 271 275 279 283 293 296 294 281 265 264 262 265 270 277 284 292 300 302 301 304 309 311 312 313
256 253 251 252 256 261 262 255 253 253 251 251 253 267 276 273 270 269 276 289 296 297 296 283 274 267 270 276 277 285 291 291 298 304 308 307 308 312
255 252 256 259 260 261 262 264 257 251 254 253 247 260 266 268 270 272 273 279 283 288 299 305 304 296 281 280 276 280 286 292 296 302 306 310 312 314
253 258 257 254 256 260 263 268 258 251 253 248 249 254 255 262 273 278 273 272 279 286 296 304 303 295 287 286 267 272 284 292 300 303 306 311 314 318
246 252 257 256 257 260 261 260 260 259 255 243 247 253 255 258 259 264 272 280 287 288 292 294 291 289 287 297 300 288 289 293 298 302 307 304 304 313
252 248 253 255 258 259 258 260 261 257 250 245 245 250 253 257 259 262 262 271 281 289 289 285 282 286 281 290 297 306 309 291 291 298 307 307 303 305
260 253 252 251 253 253 253 249 245 242 241 244 246 249 252 256 262 265 268 267 274 277 280 285 292 296 288 285 287 298 312 314 297 290 295 297 303 313
264 258 255 254 251 246 243 241 239 235 230 238 246 250 253 254 259 263 264 261 268 277 287 297 303 301 286 280 291 303 313 321 321 300 291 285 282 300
268 261 256 254 252 243 233 231 237 239 234 239 247 251 254 258 262 262 259 260 262 269 283 295 302 305 297 291 295 302 311 318 323 332 333 326 293 283
Height
1483 1484 1484 1484 1484 1484 1484 1484 1484 1482 1480 1479 1478 1476 1475 1474 1472 1471 1470 1469 1468 1467 1466 1464 1463 1462 1461 1460 1458 1456 1455 1453 1451 1449 1448 1446 1444 1441
1479 1480 1480 1480 1480 1480 1480 1480 1479 1479 1477 1474 1473 1472 1471 1469 1468 1467 1466 1465 1464 1463 1462 1460 1459 1458 1456 1455 1453 1452 1450 1448 1446 1445 1443 1441 1439 1437
1475 1476 1476 1476 1476 1475 1475 1475 1475 1474 1472 1470 1469 1468 1467 1466 1464 1463 1462 1461 1460 1459 1458 1456 1455 1453 1452 1451 1449 1447 1445 1444 1442 1440 1438 1436 1435 1432
1471 1471 1471 1472 1471 1471 1471 1470 1470 1469 1469 1466 1465 1464 1463 1462 1461 1460 1458 1457 1456 1455 1454 1452 1451 1449 1448 1446 1444 1443 1441 1439 1437 1436 1434 1432 1430 1428
1467 1467 1467 1467 1467 1466 1466 1466 1465 1465 1464 1463 1461 1460 1459 1458 1457 1456 1455 1454 1453 1451 1450 1449 1447 1446 1444 1442 1440 1439 1437 1435 1433 1431 1429 1428 1426 1423
1462 1462 1462 1462 1462 1462 1461 1461 1461 1461 1460 1459 1458 1456 1455 1454 1453 1452 1451 1450 1449 1448 1446 1445 1443 1442 1440 1438 1437 1435 1433 1431 1429 1427 1426 1424 1422 1420
1457 1457 1457 1457 1457 1457 1457 1457 1457 1456 1455 1455 1454 1453 1452 1451 1450 1449 1448 1446 1445 1444 1443 1441 1440 1438 1437 1435 1433 1431 1430 1428 1426 1424 1422 1420 1418 1416
1452 1452 1452 1452 1452 1452 1452 1452 1452 1452 1451 1451 1450 1449 1448 1448 1447 1446 1445 1443 1441 1441 1440 1438 1437 1435 1433 1432 1430 1428 1426 1424 1422 1420 1418 1416 1414 1412
1447 1447 1447 1447 1447 1447 1447 1447 1447 1447 1447 1447 1446 1445 1445 1444 1443 1442 1441 1440 1438 1437 1436 1434 1434 1432 1430 1428 1426 1425 1423 1421 1419 1417 1415 1413 1411 1409
1443 1443 1443 1443 1443 1443 1442 1442 1442 1442 1442 1442 1441 1441 1440 1440 1439 1439 1437 1436 1435 1434 1433 1431 1430 1428 1427 1425 1423 1421 1419 1418 1416 1414 1412 1410 1408 1405
1439 1439 1438 1438 1439 1439 1438 1438 1438 1438 1438 1437 1437 1436 1436 1435 1435 1434 1433 1432 1431 1430 1430 1429 1427 1425 1423 1421 1420 1418 1416 1414 1412 1410 1408 1407 1404 1402
1435 1435 1434 1434 1434 1434 1434 1434 1434 1433 1433 1432 1432 1431 1431 1430 1430 1430 1430 1429 1428 1427 1426 1426 1424 1422 1420 1418 1417 1415 1413 1411 1409 1407 1405 1404 1402 1399
1431 1431 1430 1430 1431 1430 1430 1430 1430 1429 1429 1428 1428 1427 1427 1426 1426 1426 1426 1425 1425 1424 1424 1423 1421 1420 1419 1416 1414 1412 1410 1408 1406 1404 1403 1401 1399 1397
1428 1427 1427 1427 1427 1427 1426 1426 1426 1426 1425 1424 1424 1423 1423 1423 1422 1422 1422 1422 1421 1421 1420 1420 1418 1417 1415 1413 1411 1409 1408 1406 1404 1401 1400 1398 1396 1395
1424 1424 1424 1424 1424 1423 1423 1423 1423 1422 1422 1421 1420 1420 1420 1420 1419 1419 1419 1418 1417 1417 1416 1416 1415 1414 1413 1411 1408 1406 1404 1403 1401 1399 1397 1395 1393 1392
1421 1421 1422 1421 1421 1420 1420 1420 1419 1419 1419 1418 1417 1417 1417 1417 1416 1416 1416 1415 1414 1413 1413 1413 1412 1411 1409 1408 1406 1404 1403 1401 1399 1397 1395 1393 1392 1390
1419 1419 1419 1419 1418 1418 1417 1417 1416 1416 1416 1415 1415 1414 1414 1414 1414 1414 1413 1412 1412 1411 1410 1410 1409 1408 1407 1406 1404 1402 1400 1398 1397 1395 1393 1391 1390 1388
1417 1416 1416 1415 1415 1415 1414 1414 1414 1413 1413 1413 1413 1412 1412 1412 1412 1411 1411 1410 1409 1409 1408 1407 1406 1405 1404 1403 1402 1400 1398 1396 1395 1394 1392 1390 1388 1387
1414 1413 1413 1412 1412 1412 1412 1411 1411 1411 1411 1411 1411 1410 1410 1410 1410 1409 1409 1408 1407 1407 1406 1405 1404 1403 1402 1400 1399 1398 1396 1394 1393 1391 1390 1389 1387 1385
1410 1410 1410 1410 1409 1409 1409 1409 1409 1409 1408 1408 1409 1408 1408 1408 1408 1407 1407 1406 1405 1404 1404 1403 1402 1401 1400 1399 1397 1395 1394 1393 1391 1389 1388 1387 1386 1384
1407 1407 1407 1407 1407 1406 1406 1406 1406 1406 1406 1406 1406 1406 1406 1406 1406 1405 1405 1404 1404 1403 1402 1401 1400 1400 1399 1397 1395 1393 1392 1391 1390 1388 1387 1385 1384 1382
1405 1404 1404 1404 1404 1404 1404 1404 1404 1404 1404 1404 1404 1404 1404 1404 1404 1403 1403 1402 1402 1401 1400 1399 1398 1398 1397 1396 1394 1392 1390 1389 1388 1387 1386 1385 1383 1381
1402 1402 1402 1402 1401 1401 1401 1402 1402 1402 1402 1402 1402 1402 1402 1402 1402 1402 1401 1401 1400 1399 1398 1397 1397 1396 1395 1394 1393 1391 1389 1388 1386 1385 1384 1383 1382 1381